NEMO-HD

Last updated on Mon Sep 07 2026 00:02:46 GMT+0000 (Coordinated Universal Time)

1 46277U 20061F 26249.65322471 .00006826 00000+0 14146-3 0 9998 2 46277 97.1845 310.8318 0002652 96.3544 263.8008 15.46061337334566
UTC large
Height (km)
Speed (km/s)
/
Latitude / Longitude
Inclination (degrees)
Orbital Period (minutes)
Azimuth
Elevation
Range (km)
Doppler Factor

Next 0 passes for location: London (51.5072 / 0.1276)

No passes found over London.
NEMO-HD